Regional Weather Roundup
Issued by NWS

Home | Current Version | Previous Version | Graphics & Text | Print | Product List | Glossary On
Versions: 1 2 3 4 5 6 7 8 9 10 11 12 13 14 15 16 17 18 19 20 21 22 23 24 25 26 27 28 29 30 31 32 33 34 35 36 37 38 39 40 41 42 43 44 45 46 47 48 49 50
000
ASUS43 KMPX 221201
RWRMN
WEATHER ROUNDUP FOR MINNESOTA
NATIONAL WEATHER SERVICE TWIN CITIES/CHANHASSEN MN
700 AM CDT FRI MAY 22 2015


NOTE: "FAIR" INDICATES FEW OR NO CLOUDS BELOW 12,000 FEET WITH NO
SIGNIFICANT WEATHER AND/OR OBSTRUCTIONS TO VISIBILITY. N/A MEANS
CURRENT SKY AND/OR WEATHER CONDITIONS ARE NOT AVAILABLE.

MNZ060>063-068>070-221300-
   Twin Cities Metro

CITY           SKY/WX    TMP DP  RH WIND       PRES   REMARKS
TWIN CITIES    SUNNY     51  39  63 CALM      30.19R
6HR MIN TEMP:  46; 6HR MAX TEMP:  56;

ST PAUL        SUNNY     48  41  76 NW6       30.20R
CRYSTAL        SUNNY     49  38  65 CALM      30.19R
BLAINE         SUNNY     46  43  87 CALM      30.19R
LAKEVILLE      SUNNY     45  41  87 CALM      30.18R
EDEN PRAIRIE   SUNNY     49  39  68 N3        30.18R
6HR MIN TEMP:  42; 6HR MAX TEMP:  54;

SOUTH ST PAUL  SUNNY     49  40  69 CALM      30.19R
LAKE ELMO      FAIR      43  39  87 CALM      30.20R
$$
MNZ001>005-007-008-013>017-022>024-027-028-221300-
   Northwest Minnesota

CITY           SKY/WX    TMP DP  RH WIND       PRES   REMARKS
BEMIDJI        SUNNY     38  37  94 CALM      30.19R
HALLOCK        SUNNY     45  39  81 S6        30.16R
ROSEAU         SUNNY     43  37  81 CALM      30.17S
WARROAD        SUNNY     43  37  81 CALM      30.17S
THIEF RVR FALL SUNNY     43  37  81 CALM      30.18S
CROOKSTON      SUNNY     45  39  81 SE5       30.18S
FOSSTON        SUNNY     41  37  87 CALM      30.19R
DETROIT LAKES  SUNNY     45  41  87 CALM      30.20R
MOORHEAD       SUNNY     45  41  87 CALM      30.20R
PARK RAPIDS    SUNNY     42  38  85 CALM      30.19R
MAHNOMEN       FAIR      42  38  86 SE5       30.18S
$$
MNZ006-009>011-018-025>026-221300-
   North Central Minnesota

CITY           SKY/WX    TMP DP  RH WIND       PRES   REMARKS
BAUDETTE       SUNNY     40  37  89 CALM      30.17R
FLAG ISLAND    MOSUNNY   48  45  87 CALM      30.15S
INTL FALLS     SUNNY     37  34  89 CALM      30.18R
6HR MIN TEMP:  30; 6HR MAX TEMP:  37;

WASKISH        SUNNY     41  39  93 CALM      30.19R
BIG FORK       SUNNY     37  36  93 CALM      30.19S
LONGVILLE      SUNNY     37  36  93 CALM      30.19R
GRAND RAPIDS   SUNNY     37  34  87 CALM      30.19R
CRANE LAKE     SUNNY     30  28  93 CALM      30.21R
COOK           SUNNY     34  32  93 CALM      30.19R
WALKER         FAIR      35  33  94 CALM      30.19R
$$
MNZ012-019>021-037-221300-
   Northeast Minnesota

CITY           SKY/WX    TMP DP  RH WIND       PRES   REMARKS
DULUTH         SUNNY     47  34  60 CALM      30.19R
6HR MIN TEMP:  37; 6HR MAX TEMP:  50;

ELY            SUNNY     34  30  86 CALM      30.19R
HIBBING        SUNNY     37  32  82 CALM      30.19R
EVELETH        SUNNY     36  36 100 CALM      30.20R
DULUTH HARBOR  SUNNY     45  37  76 NE7       30.21R
TWO HARBORS    SUNNY     45  36  70 CALM      30.17S
SILVER BAY     SUNNY     37  32  81 CALM      30.18R
GRAND MARAIS     N/A     41  30  65 NE3       30.21R
G MARAIS ARPRT SUNNY     36  27  69 CALM      30.19R
$$
MNZ029>031-032-039>041-046>048-054>057-064-221300-
   West Central Minnesota

CITY           SKY/WX    TMP DP  RH WIND       PRES   REMARKS
FERGUS FALLS   SUNNY     46  39  76 CALM      30.21R
WHEATON        SUNNY     45  41  87 CALM      30.21R
MORRIS         SUNNY     45  39  81 CALM      30.18R
ALEXANDRIA     SUNNY     46  42  86 CALM      30.20R
ELBOW LAKE     FAIR      47  43  87 CALM      30.19R
WADENA         SUNNY     41  39  93 CALM      30.19R
GLENWOOD       SUNNY     48  39  71 NE2       30.20R
APPLETON       SUNNY     46  43  87 CALM      30.18F
BENSON         SUNNY     45  41  87 CALM      30.19R
ORTONVILLE     FAIR      46  39  76 CALM      30.18F
MADISON        SUNNY     46  37  71 CALM      30.18S
WILLMAR        FAIR      46  43  87 CALM      30.21R
$$
MNZ033>034-036-042>043-049>051-058-059-221300-
   Central Minnesota

CITY           SKY/WX    TMP DP  RH WIND       PRES   REMARKS
ST CLOUD       SUNNY     44  41  89 CALM      30.20R
6HR MIN TEMP:  37; 6HR MAX TEMP:  47;

SAUK CENTRE    FAIR      42  39  89 CALM      30.20R
PAYNESVILLE    SUNNY     38  38  99 CALM      30.21R
AITKIN         SUNNY     39  36  87 CALM      30.18R
PINE RIVER     SUNNY     37  37 100 CALM      30.22R
BRAINERD       SUNNY     40  38  93 CALM      30.20R
STAPLES        SUNNY     39  37  93 CALM      30.19R
LONG PRAIRIE   FAIR      43  39  87 CALM      30.20R
LITTLE FALLS   SUNNY     39  37  93 CALM      30.20R
LITCHFIELD     SUNNY     48  43  81 CALM      30.20R
BUFFALO        SUNNY     46  39  76 CALM      30.21R
MAPLE LAKE     SUNNY     45  42  89 CALM      30.21R
$$
MNZ037-044-045-052-053-221300-
   East Central Minnesota

CITY           SKY/WX    TMP DP  RH WIND       PRES   REMARKS
PRINCETON      SUNNY     45  41  87 CALM      30.20R
MORA           SUNNY     37  36  93 CALM      30.21R
CAMBRIDGE      SUNNY     45  36  70 CALM      30.18R
RUSH CITY      SUNNY     42  37  82 CALM      30.20R
MOOSE LAKE     SUNNY     37  36  93 CALM      30.18R
HINCKLEY       FAIR      41  39  93 CALM      30.19R
CLOQUET        SUNNY     39  34  81 CALM      30.19R
MCGREGOR       SUNNY     41  37  87 CALM      30.20R
$$
MNZ071>073-080-081-089-090-097-098-221300-
   Southwest Minnesota

CITY           SKY/WX    TMP DP  RH WIND       PRES   REMARKS
MONTEVIDEO     SUNNY     48  39  71 CALM      30.20S
GRANITE FALLS  SUNNY     44  37  74 W3        30.21S
CANBY          SUNNY     45  39  79 W3        30.19S
MARSHALL       SUNNY     46  36  66 SW3       30.19R
REDWOOD FALLS  SUNNY     47  41  80 CALM      30.19R
OLIVIA         SUNNY     43  34  70 CALM      30.18S
PIPESTONE      SUNNY     45  36  70 E1        30.19R
WINDOM         SUNNY     45  36  70 CALM      30.20R
WORTHINGTON    SUNNY     45  34  65 CALM      30.20R
JACKSON        SUNNY     46  34  61 CALM      30.20R
TRACY          SUNNY     51  37  57 CALM      30.20R
SLAYTON        SUNNY     46  37  69 CALM      30.20S
$$
MNZ065>067-074>077-082>085-091>093-221300-
   South Central Minnesota

CITY           SKY/WX    TMP DP  RH WIND       PRES   REMARKS
MANKATO        SUNNY     45  37  76 CALM      30.19R
NEW ULM        SUNNY     45  39  81 CALM      30.19R
ST JAMES       SUNNY     46  37  71 SW5       30.20S
FAIRMONT       SUNNY     48  36  61 NW5       30.19R
GLENCOE        SUNNY     47  42  82 CALM      30.19R
FARIBAULT      SUNNY     45  41  87 CALM      30.19R
OWATONNA       SUNNY     45  41  87 CALM      30.19R
WASECA         SUNNY     43  37  81 CALM      30.20R
ALBERT LEA     SUNNY     46  39  76 CALM      30.19R
$$
MNZ078>079-086>088-094>096-221300-
   Southeast Minnesota

CITY           SKY/WX    TMP DP  RH WIND       PRES   REMARKS
ROCHESTER      SUNNY     50  36  58 NW8       30.19R
6HR MIN TEMP:  45; 6HR MAX TEMP:  50;

RED WING       SUNNY     45  39  81 CALM      30.18R
STANTON        FAIR      43  38  84 CALM      30.18R
DODGE CENTER   SUNNY     52  37  58 N5        30.18R
WINONA         SUNNY     46  41  81 NW3       30.18R
AUSTIN         SUNNY     45  39  81 CALM      30.18R
PRESTON        SUNNY     49  37  64 CALM      30.18R
$$
ABBREVIATIONS USED IN REMARKS
   TC - TEMPERATURES IN CELSIUS
  WCI - WIND CHILL INDEX
   HX - HEAT INDEX
  VSB - VISIBILITY
$$


USA.gov is the U.S. government's official web portal to all federal, state and local government web resources and services.